Volver al catálogo

CHUANG XIN 1-03

ActivoComunicacionesSSO
NORAD 37930·PAYLOAD·🇨🇳 China

Lanzado Nov 20, 2011 desde Jiuquan Satellite Launch Center

Loading…

Próximos Pases (próximas 24 horas)

TLE

ActualizadoSource: Space-Track

Época: Sep 14, 2026, 15:28 UTC

1 37930U 11068A   26257.64504808 -.00000171  00000-0 -48434-4 0  9993
2 37930  98.6974 275.2687 0014225 210.8036 287.9740 14.30552985773442

Sigue CHUANG XIN 1-03 en tiempo real con AllMySat

Download on the App Store